Back to catalog

THOR ABLESTAR DEB

AliveLEO
NORAD 17648·DEBRIS·🇺🇸 United States

Launched Jun 29, 1961 from Cape Canaveral Space Force Station

Loading…

Next Passes (next 24 hours)

TLE

FreshSource: Space-Track

Epoch: Sep 14, 2026, 08:43 UTC

1 17648U 61015LH  26257.36379274  .00002498  00000-0  98773-3 0  9992
2 17648  65.7280 240.3801 0048078 103.6944 256.9505 14.30116301769877

Track THOR ABLESTAR DEB in real time with AllMySat

Download on the App Store